Sigfox identifier Datetime Temperature Humidity SNR
002EEDA3 2019-04-23 14:57:00 21.6 29 18.4
002EEDA3 2019-04-23 14:22:00 21.5 29 18.4
002EEDA3 2019-04-23 13:47:00 21.4 29 18.4
002EEDA3 2019-04-23 13:11:55 21.4 29 18.4
002EEDA3 2019-04-23 12:36:53 21.4 29 18.5
002EEDA3 2019-04-23 12:01:54 21.4 29 18.4
002EEDA3 2019-04-23 11:26:55 21.4 29 18.5
002EEDA3 2019-04-23 10:51:56 21.2 29 18.6
002EEDA3 2019-04-23 10:16:59 21.2 29 18.5
002EEDA3 2019-04-23 09:41:57 21.2 29 15.3
002EEDA3 2019-04-23 09:06:57 21.2 28 15.3
002EEDA3 2019-04-23 08:31:56 21.2 28 16
002EEDA3 2019-04-23 07:56:53 21.2 28 16.4
002EEDA3 2019-04-23 07:21:50 21.2 28 17.3
002EEDA3 2019-04-23 06:46:50 21.2 28 17.1
002EEDA3 2019-04-23 06:11:50 21.2 28 17.1
002EEDA3 2019-04-23 05:36:50 21.1 28 17.3
002EEDA3 2019-04-23 05:01:51 21.2 28 17.5
002EEDA3 2019-04-23 04:26:50 21.2 28 17.8
002EEDA3 2019-04-23 03:51:48 21.2 28 18
002EEDA3 2019-04-23 03:16:46 21.2 28 18.1
002EEDA3 2019-04-23 02:41:44 21.2 28 18.3
002EEDA3 2019-04-23 02:06:43 21.2 28 18.2
002EEDA3 2019-04-23 01:31:42 21.2 28 18.3
002EEDA3 2019-04-23 00:56:42 21.2 28 18.2
002EEDA3 2019-04-23 00:21:44 21.2 28 18.3
002EEDA3 2019-04-22 23:46:46 21.2 28 18.3
002EEDA3 2019-04-22 23:11:47 21.2 28 18.3
002EEDA3 2019-04-22 22:36:48 21.2 28 18.4
002EEDA3 2019-04-22 22:01:48 21.2 28 18.4
002EEDA3 2019-04-22 21:26:50 21.1 28 18.5
002EEDA3 2019-04-22 20:51:52 21.1 28 18.4
002EEDA3 2019-04-22 20:16:53 21.1 28 18.7
002EEDA3 2019-04-22 19:41:53 21.2 28 18.5
002EEDA3 2019-04-22 19:06:52 21.1 28 18.6
002EEDA3 2019-04-22 18:31:52 21.2 28 18.2
002EEDA3 2019-04-22 17:56:50 21.1 28 17.9
002EEDA3 2019-04-22 17:21:52 21.2 28 17.1
002EEDA3 2019-04-22 16:46:47 21.2 28 17.1
002EEDA3 2019-04-22 16:11:46 21.2 28 17.3
002EEDA3 2019-04-22 15:36:45 21.2 28 17.5
002EEDA3 2019-04-22 15:01:46 21.2 28 17.6
002EEDA3 2019-04-22 14:26:46 21.2 28 17.4
002EEDA3 2019-04-22 13:51:47 21.2 28 17
002EEDA3 2019-04-22 13:16:46 21.2 28 16.9
002EEDA3 2019-04-22 12:41:47 21.2 28 17
002EEDA3 2019-04-22 12:06:46 21.2 28 17
002EEDA3 2019-04-22 11:31:44 21.2 27 17.2
002EEDA3 2019-04-22 10:56:44 21.2 27 17
002EEDA3 2019-04-22 10:21:44 21.2 27 17.1
002EEDA3 2019-04-22 09:46:45 21.2 27 17
002EEDA3 2019-04-22 09:11:46 21.2 27 17.1
002EEDA3 2019-04-22 08:36:46 21.2 27 17
002EEDA3 2019-04-22 08:01:46 21.2 27 19.4
002EEDA3 2019-04-22 07:26:48 21.2 27 21
002EEDA3 2019-04-22 06:51:46 21.2 27 21.1
002EEDA3 2019-04-22 06:16:47 21.2 27 21.3
002EEDA3 2019-04-22 05:41:48 21.2 27 21.2
002EEDA3 2019-04-22 05:06:49 21.2 27 21.2
002EEDA3 2019-04-22 04:31:48 21.2 27 21.2
002EEDA3 2019-04-22 03:56:47 21.2 27 21.2
002EEDA3 2019-04-22 03:21:49 21.4 27 21.3
002EEDA3 2019-04-22 02:46:50 21.3 27 21.3
002EEDA3 2019-04-22 02:11:51 21.4 27 21.3
002EEDA3 2019-04-22 01:36:49 21.4 27 21.1
002EEDA3 2019-04-22 01:01:47 21.4 27 21
002EEDA3 2019-04-22 00:26:46 21.4 27 21.1
002EEDA3 2019-04-21 23:51:44 21.4 27 21.3
002EEDA3 2019-04-21 23:16:43 21.4 27 21.3
002EEDA3 2019-04-21 22:41:41 21.4 27 21.3
002EEDA3 2019-04-21 22:06:40 21.4 27 21.2
002EEDA3 2019-04-21 21:31:39 21.4 27 21.4
002EEDA3 2019-04-21 20:56:39 21.4 27 21.3
002EEDA3 2019-04-21 20:21:38 21.4 27 21.3
002EEDA3 2019-04-21 19:46:37 21.4 27 21.2
002EEDA3 2019-04-21 19:11:38 21.2 27 21.2
002EEDA3 2019-04-21 18:36:39 21.2 27 21.2
002EEDA3 2019-04-21 18:01:41 21.2 27 21.3
002EEDA3 2019-04-21 17:26:41 21.2 27 17.9
002EEDA3 2019-04-21 16:51:38 21.2 27 17.4
002EEDA3 2019-04-21 16:16:37 21.2 27 16.9
002EEDA3 2019-04-21 15:41:35 21.2 27 17.2
002EEDA3 2019-04-21 15:06:34 21.2 27 17.2
002EEDA3 2019-04-21 14:31:36 21.2 27 17.3
002EEDA3 2019-04-21 13:56:36 21.2 27 17.6
002EEDA3 2019-04-21 13:21:36 21.1 27 17.6
002EEDA3 2019-04-21 12:46:35 21 27 17.6
002EEDA3 2019-04-21 12:11:35 21.2 27 17.7
002EEDA3 2019-04-21 11:36:36 21.1 27 17.9
002EEDA3 2019-04-21 11:01:36 21.1 27 18.1
002EEDA3 2019-04-21 10:26:36 21.1 27 17.6
002EEDA3 2019-04-21 09:51:35 21.1 27 17.2
002EEDA3 2019-04-21 09:16:36 21.2 27 17.5
002EEDA3 2019-04-21 08:41:40 21.1 27 17.8
002EEDA3 2019-04-21 08:06:42 21.2 27 17.8
002EEDA3 2019-04-21 07:31:41 21.2 27 17.5
002EEDA3 2019-04-21 06:56:41 21.2 27 17.4
002EEDA3 2019-04-21 06:21:42 21.2 27 17.4
002EEDA3 2019-04-21 05:46:43 21.2 27 17.4
002EEDA3 2019-04-21 05:11:43 21.2 27 17.8
002EEDA3 2019-04-21 04:36:44 21.2 27 17.9
002EEDA3 2019-04-21 04:01:44 21.2 27 17.7
002EEDA3 2019-04-21 03:26:45 21.2 27 17.7
002EEDA3 2019-04-21 02:51:48 21.2 27 18
002EEDA3 2019-04-21 02:16:51 21.2 26 18.2
002EEDA3 2019-04-21 01:41:56 21.2 26 18.4
002EEDA3 2019-04-21 01:06:53 21.2 26 18.5
002EEDA3 2019-04-21 00:31:53 21.2 26 18.4
002EEDA3 2019-04-20 23:56:52 21.2 26 18.5
002EEDA3 2019-04-20 23:21:53 21.2 26 20.4
002EEDA3 2019-04-20 22:46:52 21.2 26 20.4
002EEDA3 2019-04-20 22:11:51 21.2 26 20.4
002EEDA3 2019-04-20 21:36:50 21.2 26 20.3
002EEDA3 2019-04-20 21:01:48 21.2 26 20.2
002EEDA3 2019-04-20 20:26:47 21.2 26 20.2
002EEDA3 2019-04-20 19:51:45 21.2 26 20.2
002EEDA3 2019-04-20 19:16:44 21.2 26 20.2
002EEDA3 2019-04-20 18:41:42 21.2 26 20.1
002EEDA3 2019-04-20 18:06:41 21.2 26 20.4
002EEDA3 2019-04-20 17:31:41 21.2 26 20.4
002EEDA3 2019-04-20 16:56:36 21.2 26 20.6
002EEDA3 2019-04-20 16:21:35 21.2 26 20.6
002EEDA3 2019-04-20 15:46:35 21.2 26 20.7
002EEDA3 2019-04-20 15:11:36 21.2 26 20.5
002EEDA3 2019-04-20 14:36:35 21.2 26 20.7
002EEDA3 2019-04-20 14:01:34 21.1 26 20.8
002EEDA3 2019-04-20 13:26:35 21.1 26 21
002EEDA3 2019-04-20 12:51:33 21 26 21
002EEDA3 2019-04-20 12:16:32 21.1 26 20.9
002EEDA3 2019-04-20 11:41:31 21.1 26 20.8
002EEDA3 2019-04-20 11:06:30 21 26 20.5
002EEDA3 2019-04-20 10:31:28 21 26 20.7
002EEDA3 2019-04-20 09:56:29 21 26 21
002EEDA3 2019-04-20 09:21:26 21 25 20.8
002EEDA3 2019-04-20 08:46:25 21 25 19.2
002EEDA3 2019-04-20 08:11:24 21 25 19.3
002EEDA3 2019-04-20 07:36:26 21 25 19.7
002EEDA3 2019-04-20 07:01:28 21 25 19.7
002EEDA3 2019-04-20 06:26:29 21 25 19.7
002EEDA3 2019-04-20 05:51:26 21 25 19.6
002EEDA3 2019-04-20 05:16:26 21 25 19.8
002EEDA3 2019-04-20 04:41:23 21 25 19.8
002EEDA3 2019-04-20 04:06:24 21 25 20
002EEDA3 2019-04-20 03:31:25 21 25 19.5
002EEDA3 2019-04-20 02:56:25 21 25 19.6
002EEDA3 2019-04-20 02:21:24 21 26 19.4
002EEDA3 2019-04-20 01:46:23 21 25 19.7
002EEDA3 2019-04-20 01:11:24 21 26 19.7
002EEDA3 2019-04-20 00:36:23 21 26 19.8
002EEDA3 2019-04-20 00:01:22 21 26 19.7
002EEDA3 2019-04-19 23:26:24 21 26 19.6
002EEDA3 2019-04-19 22:51:27 21 26 19.6
002EEDA3 2019-04-19 22:16:29 21 26 19.6
002EEDA3 2019-04-19 21:41:30 21 26 19.4
002EEDA3 2019-04-19 21:06:32 21 26 19.8
002EEDA3 2019-04-19 20:31:35 21 26 19.7
002EEDA3 2019-04-19 19:56:36 20.8 26 19.6
002EEDA3 2019-04-19 19:21:38 20.9 26 19.6
002EEDA3 2019-04-19 18:46:40 20.9 26 19.7
002EEDA3 2019-04-19 18:11:41 20.9 26 19.8
002EEDA3 2019-04-19 17:36:43 20.9 26 19.6
002EEDA3 2019-04-19 17:01:47 21 26 19.3
002EEDA3 2019-04-19 16:26:48 21 26 19.2
002EEDA3 2019-04-19 15:51:48 21 26 19.3
002EEDA3 2019-04-19 15:16:47 21 26 19.3
002EEDA3 2019-04-19 14:41:50 21 26 20.8
002EEDA3 2019-04-19 14:06:49 21 27 20.7
002EEDA3 2019-04-19 13:31:50 21 27 20.5
002EEDA3 2019-04-19 12:56:51 21 27 20.5
002EEDA3 2019-04-19 12:21:52 21 27 20.5
002EEDA3 2019-04-19 11:46:54 21 27 20.5
002EEDA3 2019-04-19 11:11:58 21.1 27 20.2
002EEDA3 2019-04-19 10:37:00 21.1 27 20.1
002EEDA3 2019-04-19 10:02:01 21.2 27 20
002EEDA3 2019-04-19 09:27:01 21.2 27 19.8
002EEDA3 2019-04-19 08:52:01 21.2 27 20
002EEDA3 2019-04-19 08:17:01 21.2 28 20.1
002EEDA3 2019-04-19 07:42:00 21.2 28 20.1
002EEDA3 2019-04-19 07:07:01 21.2 28 20
002EEDA3 2019-04-19 06:32:00 21.2 28 19.6
002EEDA3 2019-04-19 05:57:03 21.2 28 19.8
002EEDA3 2019-04-19 05:22:06 21.2 28 19.7
002EEDA3 2019-04-19 04:47:09 21.2 28 19.4
002EEDA3 2019-04-19 04:12:10 21.2 28 20.8
002EEDA3 2019-04-19 03:37:10 21.2 28 22
002EEDA3 2019-04-19 03:02:11 21.2 28 22.9
002EEDA3 2019-04-19 02:27:13 21.2 28 23.3
002EEDA3 2019-04-19 01:52:17 21.2 28 23.4
002EEDA3 2019-04-19 01:17:19 21.3 28 23.6
002EEDA3 2019-04-19 00:42:21 21.2 28 24.3
002EEDA3 2019-04-19 00:07:20 21.2 28 23.8
002EEDA3 2019-04-18 23:32:20 21.3 28 23.9
002EEDA3 2019-04-18 22:57:21 21.3 28 24.1
002EEDA3 2019-04-18 22:22:22 21.3 28 24.4
002EEDA3 2019-04-18 21:47:23 21.2 28 24.5
002EEDA3 2019-04-18 21:12:23 21.3 28 24.8
002EEDA3 2019-04-18 20:37:23 21.3 28 25
002EEDA3 2019-04-18 20:02:25 21.4 28 25.1
002EEDA3 2019-04-18 19:27:25 21.4 28 25.3
002EEDA3 2019-04-18 18:52:26 21.4 28 25.4
002EEDA3 2019-04-18 18:17:27 21.4 28 25.5
002EEDA3 2019-04-18 17:42:29 21.4 29 25.5
002EEDA3 2019-04-18 17:07:31 21.5 29 25.7
002EEDA3 2019-04-18 16:32:35 21.6 29 25.8
002EEDA3 2019-04-18 15:57:35 21.6 29 26
002EEDA3 2019-04-18 15:22:40 21.6 29 26.1
002EEDA3 2019-04-18 14:47:42 21.7 29 26.3
002EEDA3 2019-04-18 14:12:45 21.8 29 26.4
002EEDA3 2019-04-18 13:37:48 21.8 29 26.2
002EEDA3 2019-04-18 13:02:52 22 29 25.8
002EEDA3 2019-04-18 12:27:56 22.2 28 25.6
002EEDA3 2019-04-18 11:53:00 22.5 22 25.5
002EEDA3 2019-04-18 11:18:02 22.4 22 25.5
002EEDA3 2019-04-18 10:43:05 22.3 23 25.5
002EEDA3 2019-04-18 10:08:08 22.2 23 25.1
002EEDA3 2019-04-18 09:33:12 22.2 23 25.1
002EEDA3 2019-04-18 08:58:14 22.2 23 25.1
002EEDA3 2019-04-18 08:23:18 22.2 22 25.2
002EEDA3 2019-04-18 07:48:21 22.2 22 25
002EEDA3 2019-04-18 07:13:23 22.2 23 25
002EEDA3 2019-04-18 06:38:26 22.2 23 24.9
002EEDA3 2019-04-18 06:03:26 22.2 23 24.8
002EEDA3 2019-04-18 05:28:28 22.2 23 24.9
002EEDA3 2019-04-18 04:53:32 22.2 23 25
002EEDA3 2019-04-18 04:18:34 22.2 23 24.9
002EEDA3 2019-04-18 03:43:35 22.3 23 25
002EEDA3 2019-04-18 03:08:38 22.2 23 25
002EEDA3 2019-04-18 02:33:42 22.4 23 25
002EEDA3 2019-04-18 01:58:43 22.4 24 25
002EEDA3 2019-04-18 01:23:45 22.4 24 25
002EEDA3 2019-04-18 00:48:49 22.5 24 24.9
002EEDA3 2019-04-18 00:13:53 22.5 24 24.9
002EEDA3 2019-04-17 23:38:56 22.5 24 24.9
002EEDA3 2019-04-17 23:03:58 22.5 24 24.9
002EEDA3 2019-04-17 22:28:57 22.5 24 24.9
002EEDA3 2019-04-17 21:54:00 22.6 24 24.9
002EEDA3 2019-04-17 21:19:03 22.7 24 25.1
002EEDA3 2019-04-17 20:44:06 22.7 24 25.4
002EEDA3 2019-04-17 20:09:09 22.8 24 25.5
002EEDA3 2019-04-17 19:34:11 22.9 23 25.6
002EEDA3 2019-04-17 18:59:13 22.9 23 25.6
002EEDA3 2019-04-17 18:24:14 22.9 23 25.6
002EEDA3 2019-04-17 17:49:16 22.9 23 25.6
002EEDA3 2019-04-17 17:14:17 22.9 23 25.7
002EEDA3 2019-04-17 16:39:21 23.1 23 25.6
002EEDA3 2019-04-17 16:04:24 23 23 25.6
002EEDA3 2019-04-17 15:29:27 23 24 25.9
002EEDA3 2019-04-17 14:54:28 23 24 26
002EEDA3 2019-04-17 14:19:31 22.9 24 25.9
002EEDA3 2019-04-17 13:44:33 22.9 24 26
002EEDA3 2019-04-17 13:09:35 22.7 24 26
002EEDA3 2019-04-17 12:34:35 22.7 24 26
002EEDA3 2019-04-17 11:59:36 22.5 23 26
002EEDA3 2019-04-17 11:24:37 22.4 23 26.1
002EEDA3 2019-04-17 10:49:40 22.2 23 26.1
002EEDA3 2019-04-17 10:14:41 22.2 22 26
002EEDA3 2019-04-17 09:39:41 22.2 23 26.1
002EEDA3 2019-04-17 09:04:41 22.2 23 26
002EEDA3 2019-04-17 08:29:43 22.2 22 25.9
002EEDA3 2019-04-17 07:54:45 22.2 21 26
002EEDA3 2019-04-17 07:19:48 22.2 21 25.8
002EEDA3 2019-04-17 06:44:50 22.1 21 25.7
002EEDA3 2019-04-17 06:09:52 22.1 21 25.6
002EEDA3 2019-04-17 05:34:55 22.1 21 25.5
002EEDA3 2019-04-17 04:59:58 22 21 25.5
002EEDA3 2019-04-17 04:25:00 22.2 21 25.5
002EEDA3 2019-04-17 03:50:03 22.2 21 25.5
002EEDA3 2019-04-17 03:15:05 22.2 21 25.5
002EEDA3 2019-04-17 02:40:05 22.2 21 25.5
002EEDA3 2019-04-17 02:05:05 22.2 21 25.9
002EEDA3 2019-04-17 01:30:09 22.2 21 26
002EEDA3 2019-04-17 00:55:12 22.2 21 25.6
002EEDA3 2019-04-17 00:20:15 22.2 21 25.6
002EEDA3 2019-04-16 23:45:18 22.2 21 25.6
002EEDA3 2019-04-16 23:10:21 22.2 21 25.5
002EEDA3 2019-04-16 22:35:24 22.3 21 25.6
002EEDA3 2019-04-16 22:00:26 22.4 21 25.5
002EEDA3 2019-04-16 21:25:29 22.5 21 25.6
002EEDA3 2019-04-16 20:50:33 22.5 21 25.5
002EEDA3 2019-04-16 20:15:37 22.5 21 25.6
002EEDA3 2019-04-16 19:40:39 22.5 21 25.9
002EEDA3 2019-04-16 19:05:40 22.5 20 25.7
002EEDA3 2019-04-16 18:30:41 22.5 20 25.8
002EEDA3 2019-04-16 17:55:41 22.5 20 25.9
002EEDA3 2019-04-16 17:20:41 22.7 20 26
002EEDA3 2019-04-16 16:45:41 22.7 20 26.1
002EEDA3 2019-04-16 16:10:41 22.8 20 26
002EEDA3 2019-04-16 15:35:42 22.8 20 25.9
002EEDA3 2019-04-16 15:00:44 22.8 20 25.9
002EEDA3 2019-04-16 14:25:46 22.7 20 25.8
002EEDA3 2019-04-16 13:50:48 22.7 20 25.8
002EEDA3 2019-04-16 13:15:50 22.5 20 25.8
002EEDA3 2019-04-16 12:40:52 22.5 20 25.8
002EEDA3 2019-04-16 12:05:53 22.5 19 25.8
002EEDA3 2019-04-16 11:30:54 22.3 19 25.5
002EEDA3 2019-04-16 10:55:58 22.2 19 25.5
002EEDA3 2019-04-16 10:21:00 22.2 20 25.6
002EEDA3 2019-04-16 09:46:03 22.2 19 25.6
002EEDA3 2019-04-16 09:11:04 22.2 19 25.6
002EEDA3 2019-04-16 08:36:04 22.2 19 25.7
002EEDA3 2019-04-16 08:01:05 22.1 19 25.6
002EEDA3 2019-04-16 07:26:07 22.1 19 25.6
002EEDA3 2019-04-16 06:51:11 22.1 19 25.6
002EEDA3 2019-04-16 06:16:14 22.1 19 25.7
002EEDA3 2019-04-16 05:41:18 22 19 25.6
002EEDA3 2019-04-16 05:06:18 22 19 25.3
002EEDA3 2019-04-16 04:31:20 22 19 25.3
002EEDA3 2019-04-16 03:56:23 22.1 18 25.2
002EEDA3 2019-04-16 03:21:27 22.1 18 25.1
002EEDA3 2019-04-16 02:46:29 22.1 18 25.1
002EEDA3 2019-04-16 02:11:32 22.1 18 25
002EEDA3 2019-04-16 01:36:35 22.2 18 25.1
002EEDA3 2019-04-16 01:01:35 22.2 18 25.1
002EEDA3 2019-04-16 00:26:35 22.2 18 25.2
002EEDA3 2019-04-15 23:51:38 22.2 18 25.2
002EEDA3 2019-04-15 23:16:41 22.2 18 25.2
002EEDA3 2019-04-15 22:41:40 22.2 18 25.2
002EEDA3 2019-04-15 22:06:41 22.2 18 25.2
002EEDA3 2019-04-15 21:31:44 22.3 18 25.2
002EEDA3 2019-04-15 20:56:47 22.5 18 25.1
002EEDA3 2019-04-15 20:21:49 22.5 18 25.1
002EEDA3 2019-04-15 19:46:51 22.5 17 25.1
002EEDA3 2019-04-15 19:11:53 22.5 17 25
002EEDA3 2019-04-15 18:36:56 22.5 16 25
002EEDA3 2019-04-15 18:01:59 22.5 16 25
002EEDA3 2019-04-15 17:27:01 22.7 16 25
002EEDA3 2019-04-15 16:52:03 22.7 16 25.4
002EEDA3 2019-04-15 16:17:06 22.7 16 25.3
002EEDA3 2019-04-15 15:42:08 22.8 17 25.2
002EEDA3 2019-04-15 15:07:10 22.7 17 25.2
002EEDA3 2019-04-15 14:32:14 22.7 17 25.2
002EEDA3 2019-04-15 13:57:16 22.7 17 25.2
002EEDA3 2019-04-15 13:22:20 22.5 17 25.4
002EEDA3 2019-04-15 12:47:23 22.5 17 25.5
002EEDA3 2019-04-15 12:12:24 22.3 17 25.4
002EEDA3 2019-04-15 11:37:26 22.2 17 25.4
002EEDA3 2019-04-15 11:02:27 22.2 17 25.4
002EEDA3 2019-04-15 10:27:27 22.2 18 25.4
002EEDA3 2019-04-15 09:52:27 22.2 18 25.3
002EEDA3 2019-04-15 09:17:28 22 18 25.3
002EEDA3 2019-04-15 08:42:30 22 18 25.3
002EEDA3 2019-04-15 08:07:32 22 18 25.4
002EEDA3 2019-04-15 07:32:35 21.9 18 25.5
002EEDA3 2019-04-15 06:57:37 21.9 18 25.5
002EEDA3 2019-04-15 06:22:39 21.8 18 25.5
002EEDA3 2019-04-15 05:47:39 21.8 18 25.6
002EEDA3 2019-04-15 05:12:39 21.8 18 25.5
002EEDA3 2019-04-15 04:37:39 21.8 19 25.5
002EEDA3 2019-04-15 04:02:40 21.8 19 25.6
002EEDA3 2019-04-15 03:27:41 21.8 19 25.4
002EEDA3 2019-04-15 02:52:41 21.8 19 25.3
002EEDA3 2019-04-15 02:17:42 21.8 19 24.8
002EEDA3 2019-04-15 01:42:42 21.8 19 24.9
002EEDA3 2019-04-15 01:07:43 21.8 19 25
002EEDA3 2019-04-15 00:32:46 21.8 19 25
002EEDA3 2019-04-14 23:57:45 21.8 19 25
002EEDA3 2019-04-14 23:22:45 21.8 19 25
002EEDA3 2019-04-14 22:47:48 22 19 24.8
002EEDA3 2019-04-14 22:12:50 22 19 24.8
002EEDA3 2019-04-14 21:37:51 22 20 24.7
002EEDA3 2019-04-14 21:02:51 22 20 24.8
002EEDA3 2019-04-14 20:27:50 22 20 24.7
002EEDA3 2019-04-14 19:52:50 22 20 24.9
002EEDA3 2019-04-14 19:17:51 22 20 24.8
002EEDA3 2019-04-14 18:42:51 22 19 24.9
002EEDA3 2019-04-14 18:07:51 22 19 25
002EEDA3 2019-04-14 17:32:51 22 19 25.1
002EEDA3 2019-04-14 16:57:51 22 19 25
002EEDA3 2019-04-14 16:22:50 21.9 19 24.8
002EEDA3 2019-04-14 15:47:50 22 19 24.8
002EEDA3 2019-04-14 15:12:51 22 19 24.8
002EEDA3 2019-04-14 14:37:52 22 19 24.9
002EEDA3 2019-04-14 14:02:54 22 20 24.9
002EEDA3 2019-04-14 13:27:55 22 20 24.9
002EEDA3 2019-04-14 12:52:56 22 20 25
002EEDA3 2019-04-14 12:17:55 22 20 25
002EEDA3 2019-04-14 11:42:54 22 20 25
002EEDA3 2019-04-14 11:07:53 22 20 25.2
002EEDA3 2019-04-14 10:32:53 22 20 25.1
002EEDA3 2019-04-14 09:57:52 22 20 25.2
002EEDA3 2019-04-14 09:22:52 21.9 20 25.2
002EEDA3 2019-04-14 08:47:51 21.9 19 25.2
002EEDA3 2019-04-14 08:12:51 21.9 19 25.2
002EEDA3 2019-04-14 07:37:52 21.9 19 25.2
002EEDA3 2019-04-14 07:02:53 21.9 19 25.2
002EEDA3 2019-04-14 06:27:54 22 19 25.2
002EEDA3 2019-04-14 05:52:55 21.9 19 25.2
002EEDA3 2019-04-14 05:17:56 21.9 19 25
002EEDA3 2019-04-14 04:42:58 21.9 19 25.1
002EEDA3 2019-04-14 04:08:00 22 19 25
002EEDA3 2019-04-14 03:33:02 22 19 24.9
002EEDA3 2019-04-14 02:58:05 22 19 24.8
002EEDA3 2019-04-14 02:23:06 22 19 24.7
002EEDA3 2019-04-14 01:48:07 22 19 24.8
002EEDA3 2019-04-14 01:13:08 22 19 24.6
002EEDA3 2019-04-14 00:38:07 22 19 24.5
002EEDA3 2019-04-14 00:03:08 22 19 24.6
002EEDA3 2019-04-13 23:28:08 22 19 24.5
002EEDA3 2019-04-13 22:53:09 22 19 24.5
002EEDA3 2019-04-13 22:18:12 22 19 24.4
002EEDA3 2019-04-13 21:43:13 22.1 19 24.5
002EEDA3 2019-04-13 21:08:14 22.1 19 24.6
002EEDA3 2019-04-13 20:33:16 22.2 19 24.5
002EEDA3 2019-04-13 19:58:19 22.2 19 24.5
002EEDA3 2019-04-13 19:23:21 22.2 19 24.4
002EEDA3 2019-04-13 18:48:22 22.2 19 24.3
002EEDA3 2019-04-13 18:13:23 22.2 19 24.4
002EEDA3 2019-04-13 17:38:23 22.2 19 24.5
002EEDA3 2019-04-13 17:03:23 22.2 19 24.5
002EEDA3 2019-04-13 16:28:24 22.2 19 24.7
002EEDA3 2019-04-13 15:53:25 22.3 19 24.8
002EEDA3 2019-04-13 15:18:25 22.4 19 24.7
002EEDA3 2019-04-13 14:43:26 22.4 19 24.7
002EEDA3 2019-04-13 14:08:25 22.4 19 24.6
002EEDA3 2019-04-13 13:33:23 22.5 19 24.6
002EEDA3 2019-04-13 12:58:22 22.5 19 24.7
002EEDA3 2019-04-13 12:23:20 22.5 19 24.8
002EEDA3 2019-04-13 11:48:18 22.5 19 25.3
002EEDA3 2019-04-13 11:13:17 22.5 19 25.3
002EEDA3 2019-04-13 10:38:17 22.4 19 25.4
002EEDA3 2019-04-13 10:03:17 22.4 19 25.4
002EEDA3 2019-04-13 09:28:17 22.4 19 25.3
002EEDA3 2019-04-13 08:53:18 22.3 19 25.4
002EEDA3 2019-04-13 08:18:19 22.4 19 25.3
002EEDA3 2019-04-13 07:43:18 22.2 19 25.4
002EEDA3 2019-04-13 07:08:15 22.4 19 25.5
002EEDA3 2019-04-13 06:33:13 22.4 19 25.4
002EEDA3 2019-04-13 05:58:13 22.3 19 25.3
002EEDA3 2019-04-13 05:23:12 22.3 19 25.2
002EEDA3 2019-04-13 04:48:14 22.4 19 25.6
002EEDA3 2019-04-13 04:13:14 22.5 19 25.9
002EEDA3 2019-04-13 03:38:15 22.5 19 25.9
002EEDA3 2019-04-13 03:03:16 22.5 19 25.9
002EEDA3 2019-04-13 02:28:16 22.5 19 25.9
002EEDA3 2019-04-13 01:53:16 22.5 19 25.9
002EEDA3 2019-04-13 01:18:15 22.5 19 25.9
002EEDA3 2019-04-13 00:43:13 22.5 19 26
002EEDA3 2019-04-13 00:08:10 22.7 19 26.1
002EEDA3 2019-04-12 23:33:08 22.7 20 26.2
002EEDA3 2019-04-12 22:58:05 22.7 20 26.2
002EEDA3 2019-04-12 22:23:03 22.7 20 26.2
002EEDA3 2019-04-12 21:48:00 22.8 20 26.3
002EEDA3 2019-04-12 21:12:58 22.9 20 25.9
002EEDA3 2019-04-12 20:37:55 22.9 20 25.8
002EEDA3 2019-04-12 20:02:53 22.9 20 25.9
002EEDA3 2019-04-12 19:27:50 22.9 19 26.1
002EEDA3 2019-04-12 18:52:48 22.9 19 26.3
002EEDA3 2019-04-12 18:17:45 23 18 26.4
002EEDA3 2019-04-12 17:42:44 23.1 18 26.7
002EEDA3 2019-04-12 17:07:45 23.1 18 26.8
002EEDA3 2019-04-12 16:32:45 23.1 19 26.8
002EEDA3 2019-04-12 15:57:43 22.9 19 27.2
002EEDA3 2019-04-12 15:22:40 22.9 19 28
002EEDA3 2019-04-12 14:47:38 22.6 20 28.8
002EEDA3 2019-04-12 14:12:36 22.3 21 28.1
002EEDA3 2019-04-12 13:37:33 21.7 22 24.7
002EEDA3 2019-04-12 13:02:30 20.7 26 0